Wind_Speed
8 11 8 5 5 6 3 5 4 6 4 5 6 8 13 14 5 5 7 5 11 14 18 22 21 21 22 22 22 16 14 11 7 7 5 3 5 5 3 3 4 4 3 5 8 10 9 9 10
12 11 8 3 5 4 2 4 8 6 6 6 7 11 10 4 9 8 6 8 13 17 21 23 26 24 21 21 22 21 14 13 12 9 8 8 5 6 5 2 1 1 1 5 8 9 7 6 7
10 8 3 4 4 3 5 3 6 13 12 7 3 8 5 4 8 6 2 10 16 22 24 25 28 29 27 23 20 21 20 15 13 12 10 10 11 7 7 5 3 2 2 6 5 4 5 6 6
5 4 5 5 7 6 5 3 9 9 14 9 6 6 10 3 4 6 7 13 17 21 23 23 26 28 31 30 25 19 20 20 16 14 13 13 12 12 8 9 7 6 5 6 4 2 4 8 7
7 3 5 5 5 4 5 11 10 7 6 11 6 5 11 12 8 8 13 15 18 20 22 21 23 24 25 28 26 24 18 19 19 15 15 15 14 14 13 11 11 10 9 7 8 6 5 5 6
4 2 5 4 4 5 5 8 4 7 11 7 6 5 7 3 2 11 13 14 18 21 20 21 21 22 24 25 28 24 21 18 19 18 15 15 16 17 18 13 15 15 14 11 8 8 8 8 7
5 4 3 6 7 4 3 4 5 3 6 5 3 3 8 4 12 13 12 11 15 18 19 19 20 21 23 26 25 25 20 18 17 17 18 15 16 20 21 20 17 19 18 16 12 9 9 9 10
4 5 4 3 3 3 2 3 4 4 4 5 3 2 3 7 12 14 8 11 16 17 15 16 18 20 20 22 25 23 21 16 15 15 17 16 16 21 22 24 21 21 22 20 16 13 10 10 11
4 5 2 2 3 5 4 3 5 2 1 2 2 1 2 5 13 15 11 13 15 17 16 16 15 16 17 19 21 23 20 15 12 10 13 15 13 16 23 27 26 22 24 22 19 16 14 11 11
6 4 3 1 2 4 6 4 2 2 3 2 2 5 5 5 11 10 10 12 18 20 19 17 15 15 15 17 18 19 20 18 15 11 10 11 12 11 18 27 26 25 25 25 21 19 18 13 12
5 4 5 5 7 4 3 1 1 2 1 4 5 3 5 9 10 10 12 13 15 18 21 18 16 15 15 14 15 17 19 20 17 15 11 8 9 9 14 19 28 29 26 29 25 23 21 14 13
6 7 6 4 3 2 2 2 6 7 7 6 7 9 11 8 9 12 14 16 17 20 20 18 16 15 14 14 15 16 18 19 20 16 15 12 10 7 11 9 17 26 21 32 30 26 22 16 14
5 3 5 4 2 2 4 6 6 16 15 13 6 11 10 10 11 12 17 18 17 18 17 15 14 15 14 14 14 14 14 16 18 16 13 15 13 8 9 10 2 13 18 21 30 30 25 20 16
5 8 7 2 0 3 3 4 7 2 1 6 16 10 11 13 16 17 19 17 14 13 13 12 11 11 13 13 14 14 13 13 14 14 13 15 14 12 8 16 10 6 5 7 27 32 28 22 18
7 4 2 3 3 1 4 4 7 7 3 4 11 15 14 16 16 17 17 13 11 10 12 11 12 12 12 12 13 14 13 13 13 12 13 17 13 9 9 16 17 14 11 16 22 32 29 24 21
4 4 3 2 8 2 2 7 6 8 15 16 15 13 15 16 15 13 14 10 9 10 10 11 12 13 13 13 12 13 12 12 12 12 12 14 14 9 6 12 19 21 16 15 3 28 33 28 26
3 2 3 2 13 3 3 7 7 10 17 21 20 18 19 18 14 13 10 8 9 9 9 10 12 13 13 12 13 13 13 13 12 12 12 13 12 10 9 8 15 23 19 13 20 14 32 34 29
4 3 1 3 5 5 4 17 14 18 17 23 25 24 24 21 16 13 9 8 7 7 10 11 12 13 13 12 14 13 12 12 12 10 12 12 12 12 7 5 7 18 22 22 16 19 25 36 32
4 2 2 2 2 2 7 16 18 21 24 26 31 30 25 20 15 11 9 7 6 8 9 11 12 14 15 14 13 14 15 13 10 12 11 14 12 13 13 13 18 19 19 23 16 19 6 30 38
3 3 4 1 4 1 5 17 21 17 13 25 28 24 26 20 16 12 9 7 6 8 9 10 11 12 15 14 13 15 16 14 15 13 13 13 14 14 14 15 15 16 17 21 19 17 16 7 33
2 4 2 4 5 4 4 9 6 2 3 3 13 27 26 22 19 15 11 8 7 7 8 10 10 11 13 15 13 13 14 13 13 13 13 13 13 13 14 13 15 16 16 19 19 17 19 18 18
1 1 3 3 4 3 3 5 7 2 5 5 12 22 24 22 19 16 14 10 7 6 7 9 10 11 12 14 15 15 16 16 17 17 17 15 14 13 13 15 15 14 17 18 19 21 21 20 13
3 4 3 2 2 4 1 3 9 2 6 9 19 22 25 24 22 19 16 12 8 6 5 7 8 9 11 12 15 14 14 15 16 16 17 16 14 14 13 14 15 15 16 19 20 20 20 22 20
7 5 5 4 3 1 4 5 6 4 7 3 10 28 28 27 25 21 18 17 12 8 6 6 8 9 10 10 12 14 14 16 16 16 17 17 17 16 14 14 14 16 17 17 23 24 30 27 29
6 5 3 4 2 5 2 2 9 7 6 5 13 26 29 29 28 26 25 21 16 11 8 6 7 9 10 10 10 12 14 14 16 16 18 20 19 19 17 17 16 16 17 20 18 28 27 36 40
5 6 5 7 3 3 5 7 7 6 10 22 15 17 23 29 30 28 24 21 19 16 12 8 7 9 10 11 10 10 12 14 15 17 18 18 21 21 21 20 20 21 19 20 22 24 27 31 40
5 2 4 5 1 3 4 7 10 2 3 6 13 20 27 30 31 30 27 26 24 22 18 14 10 9 11 12 12 12 12 14 17 16 18 20 21 23 23 23 22 22 22 21 23 25 27 28 30
5 2 3 3 2 5 5 5 7 5 9 6 12 25 29 29 30 31 30 29 27 26 24 21 16 12 12 14 14 14 14 14 16 19 20 21 22 23 24 23 24 23 23 23 23 24 25 26 32
1 2 2 2 4 5 2 6 6 11 9 11 20 33 32 33 33 33 32 31 29 28 29 27 24 17 14 15 16 16 15 14 16 18 21 24 24 24 24 24 24 25 24 25 25 24 25 25 27
5 6 6 4 6 4 2 8 4 6 8 18 20 23 23 27 29 30 29 29 31 31 31 32 28 24 18 17 18 17 17 17 17 18 20 23 26 24 25 24 24 24 25 25 26 27 26 26 27
Wind_Direction
122 115 110 63 60 63 55 69 44 42 54 2 29 26 100 50 37 126 121 349 324 336 343 350 351 1 8 10 11 3 348 335 317 306 297 296 287 301 338 23 42 58 94 119 119 106 98 95 104
123 112 78 74 78 73 27 5 92 83 77 41 55 66 41 80 79 98 209 308 337 338 341 345 341 339 350 356 359 0 352 338 327 301 297 291 275 284 295 300 50 49 95 141 128 100 87 84 107
105 73 53 80 69 76 121 16 123 107 78 71 68 54 69 73 87 101 316 316 335 333 334 337 334 333 329 337 341 346 349 345 321 309 289 282 276 255 264 255 252 230 196 158 134 96 101 108 132
117 71 74 76 98 4 93 24 56 110 95 60 48 57 82 29 85 60 346 327 323 322 325 329 330 333 329 331 330 329 333 337 337 321 292 275 274 272 244 256 244 230 217 214 205 166 122 139 151
80 65 65 87 61 111 61 45 42 51 93 66 45 61 102 66 62 14 353 342 325 325 327 333 338 341 336 337 335 330 319 321 325 326 309 274 262 266 253 246 246 231 224 238 216 214 184 192 179
80 70 63 106 105 122 59 55 38 59 60 63 56 92 86 69 284 355 350 332 321 324 338 344 346 348 346 338 334 340 329 309 312 320 316 300 270 252 256 235 245 237 230 237 246 224 217 215 214
92 75 110 115 144 118 125 89 76 61 78 58 108 112 130 337 353 347 351 333 321 326 341 346 347 348 347 341 341 336 332 315 302 305 313 295 293 256 244 244 234 239 236 238 250 251 236 226 219
69 88 77 40 162 123 96 103 99 85 94 91 91 110 122 13 326 326 344 324 315 326 344 345 347 350 349 342 342 341 333 318 307 302 301 303 287 260 247 239 234 231 236 237 248 254 255 241 225
40 63 103 73 107 146 138 112 75 35 43 328 194 320 285 279 300 313 320 309 316 326 336 341 348 348 353 348 344 341 338 324 314 310 297 304 288 280 255 238 232 231 232 235 244 250 253 257 217
55 85 120 63 95 102 102 111 355 111 345 241 256 201 184 284 312 314 321 321 320 322 329 336 339 344 345 344 343 346 345 338 321 329 321 304 291 313 266 237 229 230 227 235 242 246 247 254 223
34 130 136 70 96 104 99 59 198 164 322 123 149 194 262 298 306 298 305 316 319 316 319 327 331 334 337 337 342 345 347 347 332 325 342 332 318 276 301 245 227 235 225 232 236 239 246 253 215
95 57 82 103 86 86 88 326 309 232 217 205 288 280 278 293 277 290 307 313 311 310 314 321 326 327 330 333 341 349 346 346 344 332 350 339 337 272 294 262 223 236 227 224 236 239 243 239 213
74 114 82 105 61 330 305 293 277 265 262 240 221 259 273 271 270 290 305 309 304 307 319 329 324 324 324 336 340 344 344 342 347 348 356 337 331 332 264 289 201 209 225 187 221 240 236 235 220
101 105 110 118 290 273 295 288 341 278 338 224 210 236 248 259 270 288 304 309 316 327 337 337 331 327 330 339 336 339 339 333 334 337 320 322 323 332 298 275 298 331 243 272 201 219 236 232 225
119 88 62 193 206 278 328 275 228 244 229 219 202 220 243 252 266 283 304 306 319 337 337 342 342 335 339 339 334 328 331 328 323 334 325 318 327 355 357 287 280 299 330 336 200 208 230 229 230
90 64 78 237 165 211 80 267 239 228 202 207 208 225 232 236 258 279 298 297 314 327 337 345 342 343 346 344 322 327 326 320 323 321 326 322 325 304 301 301 288 289 304 349 233 202 218 220 227
18 167 183 256 203 153 178 268 271 220 209 216 217 232 226 231 243 273 284 289 311 330 344 352 352 347 349 335 328 324 323 324 322 316 319 312 319 327 322 341 310 288 296 312 339 175 208 215 217
176 180 152 200 223 198 223 259 260 247 235 233 230 239 233 223 243 271 273 283 306 328 342 351 348 342 339 339 327 322 315 314 310 306 299 302 312 320 308 289 257 284 280 288 314 348 206 207 220
110 117 196 289 9 197 241 265 269 266 247 241 238 244 205 213 238 252 255 269 295 320 339 344 345 337 332 336 328 315 320 317 311 298 299 306 312 310 306 303 274 278 284 287 306 323 36 201 208
108 117 248 280 155 351 290 281 281 272 246 242 238 213 195 203 225 236 237 246 280 312 331 340 346 343 336 341 336 327 326 324 321 316 310 306 306 305 305 304 303 271 274 278 286 293 344 221 199
184 166 196 204 333 285 291 288 302 218 205 221 216 219 203 218 221 222 221 235 267 306 325 336 345 350 346 342 347 333 325 319 316 312 313 305 304 301 300 292 295 291 263 270 285 271 289 312 208
185 11 114 91 57 237 28 275 295 281 241 216 176 184 194 207 214 223 219 227 253 292 316 327 337 346 349 344 347 350 343 339 336 330 327 323 313 307 298 298 291 300 285 251 267 277 281 297 333
171 70 79 76 108 42 213 101 269 275 257 227 214 197 198 210 213 218 220 224 238 263 290 312 324 334 342 346 344 352 349 348 342 334 329 325 320 313 305 297 296 288 288 271 243 259 263 273 286
127 63 39 42 86 6 228 139 275 206 219 205 199 210 207 208 213 218 219 220 227 241 264 299 314 319 327 336 341 343 351 349 349 346 339 336 332 320 311 301 298 293 286 282 265 249 259 261 275
70 64 327 336 351 228 131 60 248 250 243 223 195 208 213 214 216 215 217 218 220 226 242 278 305 305 308 316 328 337 339 345 346 349 348 343 337 331 322 312 301 296 292 282 273 267 256 246 261
179 159 172 225 225 266 14 233 245 233 258 239 243 232 215 212 217 221 225 226 226 229 236 254 289 298 297 298 308 319 327 332 341 341 343 342 337 335 330 321 312 302 295 290 278 266 264 243 244
223 189 190 94 2 49 232 284 298 241 301 201 192 206 210 215 218 224 229 230 234 234 239 247 266 286 292 288 291 300 311 321 328 334 336 337 335 330 326 322 315 307 300 293 286 272 266 260 253
152 208 59 358 274 259 279 269 231 262 238 206 224 205 211 220 225 229 233 236 238 240 239 244 253 270 285 286 284 285 292 303 315 323 329 331 329 326 320 317 316 310 304 298 293 286 273 267 258
134 242 21 128 166 206 266 252 220 221 209 203 218 219 219 222 229 233 237 239 241 243 242 245 247 258 275 282 279 278 283 291 303 314 320 323 325 324 320 314 312 313 309 302 297 294 283 271 263
177 185 163 156 243 232 170 262 232 223 194 214 224 220 227 230 234 238 242 244 244 244 245 246 246 253 266 277 279 277 279 285 295 305 313 317 319 322 320 316 312 311 311 306 301 295 289 277 268
Height
1525 1525 1525 1526 1538 1544 1557 1562 1557 1561 1564 1566 1565 1564 1570 1573 1575 1585 1585 1584 1582 1579 1577 1575 1573 1572 1571 1570 1569 1567 1567 1565 1566 1566 1567 1568 1569 1570 1571 1570 1570 1570 1570 1570 1570 1571 1572 1573 1573
1526 1525 1526 1527 1547 1564 1568 1562 1566 1565 1566 1566 1565 1568 1568 1579 1579 1581 1583 1582 1581 1579 1577 1575 1572 1571 1571 1569 1569 1568 1566 1566 1565 1565 1567 1567 1567 1569 1571 1571 1571 1571 1571 1571 1571 1571 1573 1574 1575
1526 1526 1528 1535 1555 1566 1570 1565 1564 1565 1565 1566 1568 1569 1573 1581 1582 1582 1583 1582 1581 1578 1575 1574 1571 1569 1568 1568 1567 1567 1566 1564 1564 1564 1565 1567 1568 1568 1571 1572 1571 1571 1572 1572 1572 1573 1574 1575 1577
1526 1528 1532 1550 1561 1566 1566 1565 1564 1566 1567 1568 1570 1573 1578 1582 1581 1583 1583 1581 1579 1577 1575 1573 1570 1568 1565 1565 1565 1565 1565 1565 1563 1564 1564 1565 1567 1568 1569 1571 1571 1571 1572 1572 1573 1574 1575 1575 1577
1527 1529 1544 1557 1560 1565 1565 1564 1564 1566 1568 1570 1571 1577 1580 1584 1583 1582 1581 1579 1576 1575 1574 1572 1570 1567 1565 1562 1562 1562 1563 1562 1563 1562 1563 1563 1564 1567 1568 1569 1571 1570 1571 1572 1572 1573 1575 1576 1577
1528 1531 1553 1564 1564 1565 1567 1566 1566 1568 1570 1572 1573 1575 1583 1584 1582 1581 1581 1576 1574 1572 1572 1570 1569 1567 1563 1561 1560 1560 1559 1559 1558 1559 1559 1560 1561 1563 1566 1567 1569 1570 1570 1570 1571 1572 1574 1575 1576
1529 1539 1552 1560 1565 1565 1570 1569 1570 1572 1574 1575 1576 1577 1582 1580 1580 1580 1577 1574 1573 1573 1571 1568 1567 1566 1562 1560 1560 1558 1557 1556 1555 1556 1557 1557 1559 1560 1562 1564 1565 1568 1569 1570 1570 1571 1572 1574 1575
1533 1537 1550 1557 1560 1568 1569 1569 1570 1570 1573 1575 1576 1577 1579 1578 1578 1578 1577 1574 1572 1571 1570 1569 1567 1564 1563 1562 1558 1556 1555 1554 1553 1553 1553 1554 1555 1556 1558 1560 1562 1565 1567 1568 1569 1569 1571 1572 1574
1536 1552 1569 1556 1556 1565 1567 1568 1570 1571 1571 1573 1574 1576 1577 1576 1576 1575 1575 1572 1570 1570 1569 1568 1567 1565 1562 1560 1558 1555 1554 1552 1551 1550 1550 1551 1550 1552 1554 1556 1559 1561 1565 1565 1567 1568 1569 1570 1572
1538 1557 1555 1559 1559 1563 1565 1567 1568 1569 1570 1571 1572 1574 1574 1574 1573 1573 1572 1571 1569 1568 1567 1566 1565 1563 1561 1559 1557 1554 1552 1551 1549 1548 1546 1547 1548 1549 1551 1553 1555 1558 1561 1563 1565 1566 1567 1568 1570
1545 1557 1555 1559 1560 1562 1565 1566 1566 1567 1567 1569 1570 1571 1572 1572 1570 1571 1572 1571 1570 1566 1564 1564 1563 1561 1559 1560 1557 1553 1550 1549 1548 1547 1544 1543 1545 1546 1548 1549 1551 1555 1557 1560 1561 1562 1564 1566 1568
1552 1555 1555 1559 1560 1563 1564 1565 1564 1563 1563 1565 1567 1568 1569 1569 1568 1568 1568 1566 1564 1563 1563 1562 1560 1558 1558 1556 1553 1549 1547 1547 1546 1545 1544 1541 1542 1544 1545 1544 1545 1549 1550 1554 1557 1559 1561 1564 1566
1553 1556 1557 1560 1561 1563 1564 1564 1563 1558 1560 1562 1563 1565 1566 1566 1566 1566 1565 1564 1564 1562 1560 1559 1558 1556 1555 1552 1550 1547 1546 1546 1546 1545 1545 1542 1539 1540 1542 1543 1540 1544 1547 1543 1551 1554 1558 1561 1563
1555 1557 1559 1561 1562 1563 1563 1562 1562 1555 1555 1556 1559 1562 1563 1564 1564 1563 1563 1562 1560 1558 1557 1558 1556 1555 1552 1547 1547 1544 1545 1545 1545 1544 1545 1542 1539 1537 1535 1540 1539 1541 1542 1539 1542 1548 1554 1558 1561
1556 1560 1561 1562 1563 1563 1562 1560 1558 1552 1553 1554 1557 1559 1560 1560 1560 1561 1560 1559 1558 1557 1557 1556 1554 1552 1548 1546 1543 1545 1542 1543 1542 1542 1543 1541 1539 1538 1535 1535 1536 1541 1541 1543 1537 1543 1550 1554 1557
1558 1562 1570 1563 1563 1564 1565 1558 1548 1548 1550 1552 1554 1555 1556 1556 1557 1557 1557 1557 1556 1556 1555 1554 1552 1548 1546 1541 1546 1541 1542 1541 1540 1541 1540 1539 1537 1537 1533 1532 1536 1539 1537 1535 1535 1540 1545 1549 1552
1561 1568 1562 1565 1562 1563 1565 1557 1545 1545 1547 1547 1549 1551 1552 1552 1553 1554 1555 1555 1555 1553 1552 1551 1548 1546 1543 1544 1541 1540 1539 1537 1538 1539 1537 1537 1535 1534 1533 1532 1532 1530 1531 1532 1537 1533 1538 1542 1547
1558 1566 1554 1556 1560 1561 1562 1553 1545 1545 1544 1542 1543 1546 1547 1548 1548 1550 1552 1552 1552 1550 1549 1548 1547 1545 1544 1542 1539 1539 1539 1538 1539 1536 1535 1533 1532 1531 1530 1530 1526 1528 1532 1534 1532 1531 1532 1537 1543
1552 1554 1556 1555 1559 1561 1559 1552 1540 1537 1536 1534 1536 1539 1541 1543 1545 1547 1548 1549 1549 1548 1548 1547 1545 1543 1541 1540 1537 1536 1534 1535 1535 1534 1532 1531 1530 1529 1529 1524 1522 1523 1525 1526 1530 1535 1527 1534 1538
1554 1558 1562 1558 1559 1560 1556 1546 1529 1529 1525 1525 1527 1531 1535 1537 1540 1543 1544 1545 1546 1545 1545 1545 1544 1542 1539 1538 1538 1535 1534 1533 1531 1530 1530 1529 1528 1526 1524 1524 1524 1522 1522 1525 1531 1528 1527 1532 1535
1557 1564 1561 1562 1562 1558 1557 1548 1528 1524 1523 1522 1520 1524 1529 1532 1535 1539 1540 1542 1543 1543 1543 1542 1542 1541 1538 1536 1535 1534 1532 1530 1529 1528 1527 1527 1525 1524 1523 1524 1522 1517 1516 1522 1521 1526 1528 1533 1528
1567 1560 1559 1562 1571 1572 1559 1566 1536 1522 1522 1521 1520 1521 1524 1528 1531 1534 1537 1539 1540 1541 1541 1540 1540 1539 1537 1535 1533 1531 1530 1528 1526 1524 1524 1522 1522 1521 1520 1518 1517 1513 1516 1515 1516 1519 1524 1524 1527
1562 1562 1565 1567 1572 1585 1564 1584 1534 1522 1519 1518 1516 1518 1521 1524 1526 1529 1532 1535 1537 1538 1538 1538 1538 1537 1536 1534 1532 1530 1529 1527 1525 1524 1521 1520 1519 1518 1516 1515 1513 1512 1511 1511 1508 1515 1521 1522 1525
1561 1570 1573 1579 1585 1594 1562 1569 1538 1527 1511 1505 1508 1513 1516 1519 1523 1526 1529 1531 1533 1534 1535 1536 1535 1535 1534 1533 1532 1529 1528 1526 1525 1522 1520 1518 1515 1515 1514 1511 1510 1509 1507 1509 1509 1511 1512 1515 1517
1567 1578 1584 1577 1591 1558 1559 1572 1531 1510 1505 1501 1501 1505 1510 1515 1518 1521 1523 1526 1529 1530 1531 1532 1532 1532 1532 1531 1530 1528 1526 1526 1524 1521 1518 1515 1513 1512 1510 1509 1506 1506 1503 1504 1503 1508 1508 1506 1513
1573 1572 1563 1558 1566 1558 1564 1558 1519 1500 1496 1498 1499 1501 1505 1510 1512 1515 1518 1522 1524 1526 1527 1527 1528 1528 1528 1527 1527 1526 1525 1523 1520 1518 1516 1514 1511 1507 1505 1505 1503 1503 1499 1497 1501 1503 1505 1503 1506
1568 1573 1561 1573 1585 1578 1555 1534 1505 1496 1498 1497 1497 1498 1501 1504 1507 1510 1513 1516 1518 1519 1521 1522 1523 1524 1524 1523 1523 1523 1522 1520 1518 1517 1514 1511 1508 1504 1503 1501 1500 1501 1498 1497 1497 1496 1497 1497 1497
1558 1557 1566 1575 1562 1569 1552 1541 1501 1499 1493 1496 1496 1494 1496 1500 1502 1504 1507 1509 1511 1513 1516 1517 1518 1518 1518 1518 1518 1519 1518 1517 1515 1513 1510 1508 1506 1504 1501 1499 1497 1495 1494 1494 1492 1489 1490 1488 1492
1560 1561 1567 1561 1558 1557 1562 1516 1489 1482 1484 1487 1485 1486 1489 1492 1494 1497 1500 1502 1505 1507 1509 1510 1512 1513 1513 1513 1513 1514 1514 1513 1511 1509 1506 1503 1502 1499 1497 1494 1491 1490 1488 1486 1486 1483 1482 1484 1486
1546 1546 1547 1544 1548 1561 1555 1513 1479 1480 1476 1478 1478 1481 1483 1485 1488 1491 1494 1497 1498 1499 1501 1503 1506 1507 1508 1508 1508 1508 1509 1508 1507 1505 1503 1500 1498 1495 1491 1489 1487 1486 1483 1482 1479 1479 1479 1477 1477